User: anonymous   Login
Location: Caltech
(34.1382°N, 118.1253°W)
Time: 17:19:52
(UTC-07:00)
Language:

Cosmos 1758 Rocket - Orbit

View from above orbital plane
View from above orbital plane
View from above satellite
View from above satellite

Ground track
Ground track

The orbit data is extracted from the following two-line orbital elements,

1 16792U 86046B   17268.57506774  .00000082  00000-0  71782-5 0  9994
2 16792  82.4802 107.9587 0023371 325.7481  86.1788 14.83146994689767
Epoch (UTC): 25 September 2017 13:48:05
Eccentricity: 0.0023371
inclination: 82.4802°
perigee height: 603 km
apogee height: 636 km
right ascension of ascending node: 107.9587°
argument of perigee: 325.7481°
revolutions per day: 14.83146994
mean anomaly at epoch: 86.1788°
orbit number at epoch: 68976

The dashed part of the orbit path shows where the satellite is in the earth's shadow,  

DLR